Location: Roland
(31.1349°N, 85.4372°W)
Time: 00:57:12
(UTC+00:00)

S-56A Canister/Altair - Pass Details

Date: 26 April 2021
Orbit: 632 x 2500 km, 38.9° (Epoch: 06 May)

Event Time Altitude Azimuth Distance (km) Brightness Sun altitude
Rises 02:27:35 0° 242° (WSW) 5,818 12.3 -25.8°
Reaches altitude 10° 02:31:45 10° 243° (WSW) 4,600 11.8 -26.5°
Maximum altitude 02:43:55 88° 334° (NNW) 1,565 8.9 -28.6°
Enters shadow 02:48:46 30° 63° (ENE) 2,187 9.6 -29.4°
